sat.trackr.live / text

‹ back to catalog

PARUS-6U1

NORAD 68456 · 2026-067AS

PAYLOAD ACTIVE UNKNOWN

§ Identity

Operator
Country
ROC
Launch date
2026-03-30
Launch site
AFWTR
Launch vehicle
Mass (kg)
RCS (m²)

External: N2YO · Heavens-Above · Gunter

§ Orbital elements

Epoch: 2026-09-20T02:42:48.009888Z

Period
94.84 min
Inclination
97.4658°
Eccentricity
0.0007477
Mean motion
15.18370521 rev/d
Perigee alt
505.6 km
Apogee alt
515.9 km
Semi-major
6,888.9 km
B*
1.9734e-4
RAAN
220.1269°
Arg perigee
92.9710°
Mean anomaly
267.2380°
Rev number
2,633

§ Raw data

PARUS-6U11 68456U 26067AS  26263.11305567  .00003990  00000+0  19734-3 0  99942 68456  97.4658 220.1269 0007477  92.9710 267.2380 15.18370521 26330

JSON: /api/v1/satellites/68456 · /tle

For live sub-satellite position, see the globe view (requires WebGL).

§ Visibility from observer

Set your observer location to see the next 7 days of passes ≥ 10°. The values pass through the URL so the page stays shareable.

No JS? Fill the form by hand. The geolocation button needs JavaScript.

§ Radio — SatNOGS DB

ModeDescriptionDownlinkUplink
FM Mode S - Transmitter - 750kbps 2.402 GHz
GMSK UHF TT&C 437.195 MHz
AFSK V/V Digipeater 1k2 (inactive) 145.825 MHz 145.825 MHz

3 transmitters · refreshed weekly from db.satnogs.org